User: anonymous   Login
Location: Unspecified
(0.0000°N, 0.0000°E)
Time: 09:17:20
(UTC+00:00)
Language:

ELISA W23 - Orbit

View from above orbital plane
View from above orbital plane
View from above satellite
View from above satellite

Ground track
Ground track

The orbit data is extracted from the following two-line orbital elements,

1 38007U 11076A   16207.27349333 0.00000800  00000-0  14855-3 0    00
2 38007  98.1392 281.4557 0002267 159.9915 200.0083 14.65286744    00
Epoch (UTC): 25 July 2016 06:33:49
Eccentricity: 0.0002267
inclination: 98.1392°
perigee height: 674 km
apogee height: 678 km
right ascension of ascending node: 281.4557°
argument of perigee: 159.9915°
revolutions per day: 14.65286744
mean anomaly at epoch: 200.0083°
orbit number at epoch: 0

The dashed part of the orbit path shows where the satellite is in the earth's shadow,  

DLR